Regional Weather Roundup
Issued by NWS

Home | Current Version | Previous Version | Graphics & Text | Print | Product List | Glossary On
Versions: 1 2 3 4 5 6 7 8 9 10 11 12 13 14 15 16 17 18 19 20 21 22 23 24 25 26 27 28 29 30 31 32 33 34 35 36 37 38 39 40 41 42 43 44 45 46 47 48 49 50
000
ASUS43 KLMK 111310
RWRKY
KENTUCKY REGIONAL WEATHER ROUNDUP
NATIONAL WEATHER SERVICE LOUISVILLE KY
800 AM EST THU FEB 11 2016

NOTE "FAIR" INDICATES FEW OR NO CLOUDS BELOW 12,000 FEET
WITH NO SIGNIFICANT WEATHER AND/OR OBSTRUCTIONS TO VISIBILITY.

KYZ001>023-026-027-061>063-070>075-111400-
WESTERN AND SOUTH CENTRAL KENTUCKY

CITY           SKY/WX    TMP DP  RH WIND       PRES   REMARKS
PADUCAH        CLOUDY    26  19  74 NE8       30.24R WCI  18
HENDERSON      CLOUDY    23  18  80 NE6       30.28R WCI  16
OWENSBORO      CLOUDY    23  19  85 NE8       30.28R WCI  14
HOPKINSVILLE   CLOUDY    25  20  82 E7        30.22R WCI  18
BOWLING GREEN  CLOUDY    25  19  78 NE6       30.26R WCI  18
GLASGOW        CLOUDY    23  18  80 NE3       30.23R
$$

KYZ024-025-028>034-038-045-046-053-111400-
NORTH CENTRAL KENTUCKY

CITY           SKY/WX    TMP DP  RH WIND       PRES   REMARKS
LOUISVILLE/SDF CLOUDY    21   8  57 N8        30.27R WCI  11
LOUISVILLE/LOU MOCLDY    20   8  60 N6        30.28R WCI  12
FORT KNOX      CLOUDY    20  14  77 N3        30.23R
$$

KYZ035>037-039>044-047>052-055>060-089>105-111400-
NORTHEAST KENTUCKY

CITY           SKY/WX    TMP DP  RH WIND       PRES   REMARKS
LEXINGTON      CLOUDY    16  12  84 CALM      30.23R
COVINGTON      MOCLDY    11   6  81 W5        30.23R WCI   3
FRANKFORT        N/A     16   8  71 CALM      30.24R
$$

KYZ054-064>069-076>088-106>120-111400-
SOUTHEAST KENTUCKY

CITY           SKY/WX    TMP DP  RH WIND       PRES   REMARKS
JACKSON        CLOUDY    16  10  77 CALM      30.19R
LONDON         CLOUDY    20  12  71 CALM      30.19R
SOMERSET       CLOUDY    21  16  79 CALM      30.23S
MIDDLESBORO    CLOUDY    23  16  75 NE3       30.20R
MONTICELLO     FLURRIES  23  17  78 W7        30.23R WCI  15
$$




USA.gov is the U.S. government's official web portal to all federal, state and local government web resources and services.